When you browse on this site, cookies collect data to enhance your experience and personalize the content and advertising you see.
Visit our Privacy Policy to learn more. By continuing to use the site, you agree to this use of cookies and data.
  • In Slovakia
  • List of Countries
  • For 7 days
  • Water Temperature
  • Weather Map
  • Weather Widgets
  • user-avatar
    Login

    Hourly Weather Natitingou

    Today, 21 November, Thursday

    Time Temperature Precipitation Wind Pressure Humidity
    00:00 +27°C° 0 mm 1 mps 716 mmHg 29%
    01:00 +27°C° 0 mm 1 mps 716 mmHg 29%
    02:00 +27°C° 0 mm 1 mps 716 mmHg 29%
    03:00 +26°C° 0 mm 1 mps 715 mmHg 30%
    04:00 +26°C° 0 mm 1 mps 716 mmHg 30%
    05:00 +26°C° 0 mm 1 mps 716 mmHg 31%
    06:00 +23°C° 0 mm 0 mps 716 mmHg 32%
    07:00 +28°C° 0 mm 1 mps 717 mmHg 28%
    08:00 +31°C° 0 mm 1 mps 717 mmHg 25%
    09:00 +33°C° 0 mm 1 mps 718 mmHg 21%
    10:00 +35°C° 0 mm 1 mps 717 mmHg 19%
    11:00 +37°C° 0 mm 2 mps 717 mmHg 17%
    12:00 +39°C° 0 mm 2 mps 717 mmHg 15%
    13:00 +39°C° 0 mm 2 mps 716 mmHg 15%
    14:00 +39°C° 0 mm 2 mps 715 mmHg 15%
    15:00 +38°C° 0 mm 2 mps 715 mmHg 16%
    16:00 +36°C° 0 mm 2 mps 715 mmHg 18%
    17:00 +33°C° 0 mm 1 mps 715 mmHg 21%
    18:00 +31°C° 0 mm 1 mps 715 mmHg 23%
    19:00 +30°C° 0 mm 1 mps 715 mmHg 25%
    20:00 +29°C° 0 mm 1 mps 716 mmHg 26%
    21:00 +29°C° 0 mm 1 mps 716 mmHg 27%
    22:00 +28°C° 0 mm 1 mps 716 mmHg 29%
    23:00 +28°C° 0 mm 1 mps 716 mmHg 30%

    Tomorrow, 22 November, Friday

    Time Temperature Precipitation Wind Pressure Humidity
    00:00 +28°C° 0 mm 1 mps 716 mmHg 31%
    01:00 +25°C° 0 mm 0 mps 716 mmHg 32%
    02:00 +25°C° 0 mm 0 mps 716 mmHg 33%
    03:00 +24°C° 0 mm 0 mps 715 mmHg 34%
    04:00 +24°C° 0 mm 0 mps 716 mmHg 36%
    05:00 +23°C° 0 mm 0 mps 716 mmHg 37%
    06:00 +23°C° 0 mm 0 mps 716 mmHg 39%
    07:00 +27°C° 0 mm 1 mps 717 mmHg 39%
    08:00 +29°C° 0 mm 1 mps 717 mmHg 40%
    09:00 +31°C° 0 mm 2 mps 718 mmHg 40%
    10:00 +35°C° 0 mm 2 mps 718 mmHg 35%
    11:00 +36°C° 0 mm 1 mps 718 mmHg 29%
    12:00 +40°C° 0 mm 1 mps 717 mmHg 23%
    13:00 +39°C° 0 mm 1 mps 717 mmHg 21%
    14:00 +39°C° 0 mm 1 mps 716 mmHg 20%
    15:00 +39°C° 0 mm 1 mps 715 mmHg 19%
    16:00 +36°C° 0 mm 1 mps 715 mmHg 22%
    17:00 +33°C° 0 mm 1 mps 715 mmHg 26%
    18:00 +29°C° 0 mm 0 mps 715 mmHg 29%
    19:00 +28°C° 0 mm 0 mps 716 mmHg 30%
    20:00 +30°C° 0 mm 1 mps 716 mmHg 31%
    21:00 +29°C° 0 mm 1 mps 717 mmHg 32%
    22:00 +29°C° 0 mm 1 mps 717 mmHg 37%
    23:00 +28°C° 0 mm 1 mps 717 mmHg 41%

    Day after tomorrow, 23 November, Saturday

    Time Temperature Precipitation Wind Pressure Humidity
    00:00 +28°C° 0 mm 1 mps 717 mmHg 46%
    01:00 +27°C° 0 mm 1 mps 716 mmHg 51%
    02:00 +26°C° 0 mm 1 mps 716 mmHg 57%
    03:00 +25°C° 0 mm 1 mps 716 mmHg 63%
    04:00 +25°C° 0 mm 1 mps 716 mmHg 68%
    05:00 +25°C° 0 mm 1 mps 716 mmHg 72%
    06:00 +22°C° 0 mm 0 mps 716 mmHg 77%
    07:00 +25°C° 0 mm 0 mps 717 mmHg 65%
    08:00 +30°C° 0 mm 1 mps 717 mmHg 53%
    09:00 +33°C° 0 mm 1 mps 718 mmHg 41%
    10:00 +35°C° 0 mm 1 mps 717 mmHg 33%
    11:00 +38°C° 0 mm 2 mps 717 mmHg 26%
    12:00 +40°C° 0 mm 2 mps 717 mmHg 18%
    13:00 +40°C° 0 mm 2 mps 716 mmHg 17%
    14:00 +40°C° 0 mm 2 mps 715 mmHg 17%
    15:00 +40°C° 0 mm 2 mps 715 mmHg 16%
    16:00 +37°C° 0 mm 2 mps 715 mmHg 19%
    17:00 +35°C° 0 mm 2 mps 715 mmHg 23%
    18:00 +32°C° 0 mm 1 mps 715 mmHg 26%
    19:00 +31°C° 0 mm 1 mps 715 mmHg 28%
    20:00 +30°C° 0 mm 1 mps 716 mmHg 30%
    21:00 +30°C° 0 mm 1 mps 716 mmHg 32%
    22:00 +29°C° 0 mm 1 mps 716 mmHg 34%
    23:00 +28°C° 0 mm 1 mps 716 mmHg 36%

    24 November, Sunday

    Time Temperature Precipitation Wind Pressure Humidity
    00:00 +28°C° 0 mm 1 mps 716 mmHg 38%
    01:00 +27°C° 0 mm 1 mps 716 mmHg 42%
    02:00 +27°C° 0 mm 1 mps 716 mmHg 45%
    03:00 +26°C° 0 mm 1 mps 715 mmHg 49%
    04:00 +26°C° 0 mm 1 mps 716 mmHg 53%
    05:00 +26°C° 0 mm 1 mps 716 mmHg 58%
    06:00 +25°C° 0 mm 1 mps 716 mmHg 62%
    07:00 +28°C° 0 mm 1 mps 717 mmHg 55%
    08:00 +30°C° 0 mm 1 mps 717 mmHg 49%
    09:00 +32°C° 0 mm 2 mps 718 mmHg 43%
    10:00 +35°C° 0 mm 1 mps 718 mmHg 36%
    11:00 +37°C° 0 mm 1 mps 717 mmHg 30%
    12:00 +40°C° 0 mm 1 mps 717 mmHg 23%
    13:00 +40°C° 0 mm 1 mps 716 mmHg 22%
    14:00 +40°C° 0 mm 2 mps 715 mmHg 20%
    15:00 +39°C° 0 mm 2 mps 715 mmHg 19%
    16:00 +36°C° 0 mm 1 mps 715 mmHg 22%
    17:00 +34°C° 0 mm 1 mps 715 mmHg 26%
    18:00 +32°C° 0 mm 1 mps 714 mmHg 30%
    19:00 +31°C° 0 mm 1 mps 715 mmHg 31%
    20:00 +28°C° 0 mm 0 mps 715 mmHg 33%
    21:00 +27°C° 0 mm 0 mps 716 mmHg 34%
    22:00 +29°C° 0 mm 1 mps 716 mmHg 35%
    23:00 +28°C° 0 mm 1 mps 716 mmHg 35%

    25 November, Monday

    Time Temperature Precipitation Wind Pressure Humidity
    00:00 +28°C° 0 mm 2 mps 716 mmHg 36%
    01:00 +27°C° 0 mm 1 mps 716 mmHg 43%
    02:00 +26°C° 0 mm 1 mps 715 mmHg 50%
    03:00 +26°C° 0 mm 1 mps 715 mmHg 57%
    04:00 +25°C° 0 mm 1 mps 715 mmHg 61%
    05:00 +25°C° 0 mm 1 mps 716 mmHg 64%
    06:00 +25°C° 0 mm 1 mps 716 mmHg 68%
    07:00 +27°C° 0 mm 1 mps 717 mmHg 60%
    08:00 +30°C° 0 mm 1 mps 717 mmHg 52%
    09:00 +33°C° 0 mm 1 mps 718 mmHg 43%
    10:00 +35°C° 0 mm 1 mps 717 mmHg 35%
    11:00 +38°C° 0 mm 2 mps 717 mmHg 27%
    12:00 +40°C° 0 mm 2 mps 716 mmHg 19%
    13:00 +40°C° 0 mm 2 mps 716 mmHg 18%
    14:00 +40°C° 0 mm 3 mps 715 mmHg 17%
    15:00 +39°C° 0 mm 3 mps 715 mmHg 16%
    16:00 +37°C° 0 mm 3 mps 715 mmHg 19%
    17:00 +35°C° 0 mm 2 mps 715 mmHg 22%
    18:00 +32°C° 0 mm 2 mps 715 mmHg 24%
    19:00 +31°C° 0 mm 2 mps 715 mmHg 25%
    20:00 +30°C° 0 mm 2 mps 716 mmHg 26%
    21:00 +30°C° 0 mm 2 mps 716 mmHg 27%
    22:00 +29°C° 0 mm 2 mps 716 mmHg 28%
    23:00 +29°C° 0 mm 2 mps 716 mmHg 28%

    26 November, Tuesday

    Time Temperature Precipitation Wind Pressure Humidity
    00:00 +28°C° 0 mm 2 mps 716 mmHg 29%
    01:00 +27°C° 0 mm 1 mps 715 mmHg 32%
    02:00 +27°C° 0 mm 1 mps 715 mmHg 34%
    03:00 +26°C° 0 mm 1 mps 715 mmHg 36%
    04:00 +25°C° 0 mm 1 mps 715 mmHg 43%
    05:00 +25°C° 0 mm 1 mps 715 mmHg 49%
    06:00 +24°C° 0 mm 1 mps 716 mmHg 56%
    07:00 +27°C° 0 mm 1 mps 716 mmHg 50%
    08:00 +29°C° 0 mm 1 mps 717 mmHg 44%
    09:00 +32°C° 0 mm 2 mps 718 mmHg 38%
    10:00 +35°C° 0 mm 2 mps 717 mmHg 32%
    11:00 +37°C° 0 mm 1 mps 717 mmHg 25%
    12:00 +40°C° 0 mm 1 mps 717 mmHg 18%
    13:00 +40°C° 0 mm 2 mps 716 mmHg 17%
    14:00 +39°C° 0 mm 3 mps 715 mmHg 16%
    15:00 +39°C° 0 mm 3 mps 714 mmHg 15%
    16:00 +37°C° 0 mm 3 mps 714 mmHg 18%
    17:00 +35°C° 0 mm 2 mps 715 mmHg 21%
    18:00 +32°C° 0 mm 1 mps 715 mmHg 24%
    19:00 +31°C° 0 mm 1 mps 715 mmHg 25%
    20:00 +30°C° 0 mm 1 mps 716 mmHg 26%
    21:00 +30°C° 0 mm 1 mps 716 mmHg 27%
    22:00 +29°C° 0 mm 1 mps 716 mmHg 27%
    23:00 +28°C° 0 mm 2 mps 716 mmHg 27%
    Show more